Date,TemperatureHighF,TemperatureAvgF,TemperatureLowF,DewpointHighF,DewpointAvgF,DewpointLowF,HumidityHigh,HumidityAvg,HumidityLow,PressureMaxIn,PressureMinIn,WindSpeedMaxMPH,WindSpeedAvgMPH,GustSpeedMaxMPH,PrecipitationSumIn
2013-1-1,28.9,24.6,12.7,25.3,19.2,9.0,92,80,72,30.19,30.08,11,2,13,0.00
2013-1-2,27.9,16.7,10.7,18.3,10.2,6.5,85,75,63,30.26,30.18,13,2,14,0.00
2013-1-3,30.1,24.4,14.0,26.2,20.1,8.4,90,83,76,30.28,30.15,13,3,15,0.00
2013-1-4,31.9,22.6,13.7,24.6,18.4,10.6,90,84,72,30.28,30.18,14,4,14,0.01
2013-1-5,33.8,28.0,18.5,31.9,25.2,16.6,96,89,78,30.30,30.01,14,3,15,0.00
2013-1-6,34.6,30.7,24.1,32.2,27.3,21.4,92,87,81,30.35,29.94,18,4,18,0.00
2013-1-7,35.9,26.0,16.8,28.3,22.1,15.2,95,86,67,30.39,30.17,18,4,22,0.01
2013-1-8,38.6,30.6,23.5,31.7,26.8,21.5,93,86,74,30.24,30.10,14,3,14,0.00
2013-1-9,49.2,39.6,27.1,35.4,29.4,21.4,88,69,38,30.52,30.08,18,4,24,0.00
2013-1-10,41.7,33.3,23.7,39.6,29.2,21.8,98,85,65,30.53,29.99,17,3,21,0.37
2013-1-11,51.9,48.0,40.3,51.6,46.8,39.7,99,96,91,29.99,29.72,16,5,20,0.53
2013-1-12,57.0,48.1,35.7,51.0,43.9,34.1,95,86,61,29.95,29.79,12,3,14,0.26
2013-1-13,35.7,29.5,16.6,34.8,27.8,12.9,97,93,85,30.26,29.83,16,4,17,0.10
2013-1-14,23.7,18.7,14.3,19.5,14.9,10.7,91,85,77,30.50,30.25,10,2,12,0.00
2013-1-15,32.7,21.1,12.5,25.0,17.3,10.7,95,86,66,30.47,30.15,9,0,11,0.01
2013-1-16,36.2,28.0,17.0,28.4,22.6,15.6,95,81,57,30.15,29.89,17,4,22,0.00
2013-1-17,33.4,28.3,19.6,30.3,20.5,12.9,89,72,60,30.42,30.07,19,3,19,0.00
2013-1-18,38.9,29.1,18.1,29.3,22.3,12.9,89,76,63,30.45,30.00,21,5,27,0.00
2013-1-19,48.4,41.2,34.4,37.2,33.1,21.5,83,73,54,30.01,29.76,40,7,40,0.00
2013-1-20,35.7,20.2,17.1,23.7,10.3,5.7,80,65,46,30.29,29.84,32,7,39,0.00
2013-1-21,17.1,11.7,6.6,8.6,3.5,-1.6,87,69,58,30.28,30.15,27,8,27,0.00
2013-1-22,13.3,7.1,2.0,2.1,0.0,-2.3,86,72,53,30.42,30.28,17,4,18,0.00
2013-1-23,20.6,15.1,7.8,15.8,7.8,0.2,89,72,62,30.39,30.14,24,4,26,0.00
2013-1-24,21.3,16.3,11.6,14.3,9.7,6.7,91,76,56,30.66,30.28,11,1,17,0.09
2013-1-25,26.2,21.3,16.6,22.1,16.8,10.1,90,82,70,30.45,30.03,23,2,24,0.00
2013-1-26,25.8,22.6,16.6,20.9,17.7,14.0,92,81,71,30.47,30.15,16,3,17,0.00
2013-1-27,34.4,27.4,20.2,33.2,23.7,16.6,96,86,76,30.45,30.01,21,5,24,0.00
2013-1-28,48.7,42.0,34.4,48.3,41.6,33.6,99,99,97,30.02,29.88,11,2,13,0.23
2013-1-29,57.4,54.3,40.5,57.0,53.8,40.2,100,99,94,29.92,29.38,23,6,25,1.07
2013-1-30,52.9,38.9,23.6,52.6,37.8,20.5,100,96,85,29.57,29.16,30,5,33,0.30
2013-1-31,23.6,16.2,9.1,21.0,12.3,6.7,92,84,70,30.14,29.57,24,8,24,0.00
2013-2-1,15.8,9.2,1.4,12.8,4.7,-1.7,90,82,67,30.41,30.14,15,4,17,0.00
2013-2-2,25.1,20.0,15.2,22.8,18.2,12.5,94,92,90,30.26,30.02,11,2,11,0.00
2013-2-3,22.2,16.0,9.5,17.1,12.1,6.1,92,84,73,30.10,29.98,18,3,18,0.00
2013-2-4,27.9,23.6,19.6,24.0,21.1,16.9,95,90,83,30.09,29.88,9,1,11,0.00
2013-2-5,30.8,25.5,14.7,29.5,23.2,13.0,96,91,81,30.09,29.83,13,3,16,0.00
2013-2-6,37.8,30.8,23.3,27.8,24.5,19.2,86,78,60,30.28,30.09,14,2,15,0.23
2013-2-7,43.7,34.3,28.6,34.4,30.7,25.9,98,87,68,30.18,29.84,19,2,19,0.30
2013-2-8,34.8,32.2,29.2,33.4,28.6,24.3,98,87,78,30.39,29.87,18,4,20,0.00
2013-2-9,39.3,29.9,19.6,29.8,24.9,17.5,95,82,68,30.43,30.15,17,3,17,0.02
2013-2-10,49.1,38.8,30.9,48.1,35.5,24.7,100,88,77,30.16,29.57,22,6,24,0.22
2013-2-11,49.0,34.9,29.7,46.7,27.8,23.1,92,75,72,30.03,29.57,28,9,29,0.00
2013-2-12,33.9,27.9,20.4,25.4,22.6,18.6,93,80,70,30.13,29.97,16,3,18,0.00
2013-2-13,46.7,31.3,18.5,34.7,26.9,17.1,97,85,60,29.98,29.75,11,1,14,0.00
2013-2-14,43.0,35.8,32.2,35.8,30.1,20.9,94,80,62,29.98,29.70,19,5,22,0.00
2013-2-15,32.2,28.0,23.2,26.9,20.7,15.0,90,74,58,30.20,29.98,15,3,18,0.00
2013-2-16,24.0,18.9,16.2,20.4,12.5,7.7,89,76,62,30.19,30.12,18,5,22,0.00
2013-2-17,33.0,22.3,10.7,17.5,13.1,7.0,86,69,43,30.26,30.12,11,2,14,0.04
2013-2-18,54.0,39.7,24.5,44.3,32.4,15.5,96,76,60,30.13,29.46,32,8,33,0.25
2013-2-19,34.8,18.9,14.1,33.2,14.7,9.4,95,83,73,30.16,29.53,23,9,25,0.01
2013-2-20,22.5,18.0,13.8,19.5,13.9,9.0,89,84,71,30.38,30.16,17,5,19,0.00
2013-2-21,27.0,25.1,22.5,21.9,20.8,19.3,89,83,76,30.41,30.05,24,3,27,0.01
2013-2-22,33.4,27.9,21.7,32.6,25.7,19.6,97,92,81,30.05,29.86,19,4,19,0.00
2013-2-23,29.7,26.7,24.7,24.4,21.7,19.8,89,81,70,29.99,29.94,14,3,14,0.00
2013-2-24,39.7,27.3,15.2,27.6,21.6,13.3,94,80,57,30.19,29.98,12,1,12,0.12
2013-2-25,44.8,31.9,19.9,32.0,25.9,18.5,96,80,58,30.23,30.00,12,2,14,0.07
2013-2-26,34.2,32.8,31.1,32.3,29.4,25.3,97,88,71,30.00,29.49,22,4,27,0.35
2013-2-27,36.2,33.2,32.3,34.8,32.4,31.6,98,97,94,29.65,29.48,8,2,10,0.29
2013-2-28,36.5,33.5,30.7,33.9,31.7,27.8,98,93,86,30.02,29.65,12,3,15,0.22
2013-3-1,33.9,29.7,23.9,28.6,25.9,20.0,96,86,77,30.17,30.01,9,2,10,0.02
2013-3-2,33.5,28.0,23.1,25.5,22.4,18.8,90,79,66,30.17,30.12,13,3,15,0.00
2013-3-3,31.6,26.0,16.4,24.4,19.8,13.4,93,78,53,30.15,30.09,14,2,14,0.04
2013-3-4,37.2,27.3,15.3,28.6,21.3,13.2,94,79,60,30.18,30.05,13,2,15,0.01
2013-3-5,32.4,30.2,27.6,29.5,27.9,25.8,96,92,82,30.04,29.78,14,4,19,0.04
2013-3-6,35.4,31.7,27.4,31.7,29.0,25.2,100,90,80,30.29,29.93,13,4,15,0.21
2013-3-7,36.7,32.0,23.0,30.4,27.1,21.3,94,83,65,30.45,30.28,11,2,14,0.29
2013-3-8,41.2,30.0,18.0,29.2,23.5,16.6,97,78,57,30.54,30.38,10,2,12,0.10
2013-3-9,43.4,36.4,27.6,35.4,30.1,22.3,85,78,65,30.38,29.92,18,5,21,0.01
2013-3-10,57.8,47.4,39.0,49.4,42.4,34.9,95,83,70,29.92,29.68,23,4,25,0.26
2013-3-11,49.9,41.6,32.7,48.7,40.0,30.7,98,94,89,29.79,29.55,19,5,21,0.09
2013-3-12,37.2,32.2,28.1,30.9,27.7,23.9,94,84,64,30.00,29.79,18,6,24,0.00
2013-3-13,31.2,27.0,24.4,24.5,18.7,14.2,90,71,52,30.34,30.00,21,6,22,0.01
2013-3-14,41.8,30.8,20.7,30.5,22.7,15.6,94,73,44,30.35,30.13,11,2,12,0.00
2013-3-15,47.9,36.5,29.0,40.4,33.9,27.9,97,91,67,30.13,29.74,11,1,11,0.24
2013-3-16,37.5,33.5,29.5,36.9,31.1,23.4,98,91,77,30.13,29.67,15,2,15,0.00
2013-3-17,38.7,32.1,28.2,26.3,23.7,21.4,81,71,58,30.23,30.05,18,4,24,0.00
2013-3-18,34.5,30.7,24.3,33.4,27.9,16.9,97,90,73,30.05,29.62,24,6,26,0.03
2013-3-19,35.5,26.7,19.3,18.7,15.7,12.7,83,64,43,30.09,29.81,29,10,29,0.00
2013-3-20,26.9,22.2,17.9,17.1,12.6,8.2,90,67,51,30.08,30.03,22,7,22,0.00
2013-3-21,31.8,23.9,17.5,19.0,16.2,13.4,88,73,53,30.07,30.00,16,4,17,0.04
2013-3-22,39.2,28.1,16.3,21.4,18.1,13.9,93,69,40,30.10,30.03,11,1,14,0.00
2013-3-23,41.7,30.7,21.6,28.2,23.7,19.6,95,76,53,30.16,30.03,11,1,11,0.00
2013-3-24,38.2,32.6,27.5,28.1,25.6,22.9,86,76,60,30.05,29.62,22,4,22,0.00
2013-3-25,36.0,32.6,28.3,31.1,28.1,25.1,94,84,72,30.04,29.65,14,4,19,0.02
2013-3-26,38.4,34.2,28.4,32.7,29.9,26.1,96,85,70,30.26,30.04,15,3,15,0.09
2013-3-27,42.6,35.1,27.2,31.0,25.8,20.5,93,70,46,30.33,30.25,13,3,14,0.01
2013-3-28,48.2,36.8,25.8,27.4,22.7,20.0,80,59,36,30.36,30.30,14,2,15,0.00
2013-3-29,52.2,38.8,26.8,28.6,23.2,19.8,90,57,32,30.34,30.25,13,1,13,0.00
2013-3-30,58.7,43.5,25.3,38.3,31.0,21.3,88,64,41,30.26,29.88,16,3,17,0.00
2013-3-31,59.7,48.4,37.9,43.9,37.3,28.1,96,68,40,29.88,29.68,21,6,23,0.00
2013-4-1,37.7,33.4,26.3,29.8,21.1,17.0,75,61,47,30.17,29.85,16,3,22,0.00
2013-4-2,42.3,33.4,24.9,21.6,15.8,9.2,77,50,29,30.32,30.17,18,3,20,0.00
2013-4-3,44.4,32.5,20.4,27.0,18.9,14.9,80,59,32,30.47,30.32,11,1,12,0.00
2013-4-4,58.2,41.3,23.7,27.2,22.1,18.4,82,51,24,30.36,29.98,11,1,13,0.00
2013-4-5,48.4,40.2,32.8,34.4,28.9,20.9,89,65,40,30.21,29.98,12,3,16,0.00
2013-4-6,69.2,51.6,32.8,45.8,34.2,25.6,78,54,34,30.17,29.65,33,8,33,1.44
2013-4-7,62.1,51.4,43.3,49.1,42.0,36.4,89,71,49,29.96,29.64,22,4,23,0.02
2013-4-8,69.3,51.6,40.7,57.5,44.9,35.8,98,79,57,29.99,29.69,31,5,33,0.21
2013-4-9,77.8,55.7,41.1,62.7,49.3,39.4,95,81,54,30.01,29.80,17,2,21,0.00
2013-4-10,51.5,45.5,41.5,49.4,44.0,40.2,98,95,88,29.95,29.78,14,2,17,0.30
2013-4-11,45.8,43.7,41.9,45.2,43.1,41.2,98,98,97,29.86,29.58,15,4,21,1.50
2013-4-12,45.4,39.5,36.5,42.2,36.4,31.0,99,89,75,29.87,29.58,19,5,22,0.04
2013-4-13,44.9,38.4,34.5,34.9,31.7,28.5,94,77,58,30.01,29.87,20,4,20,0.01
2013-4-14,66.5,50.2,36.1,51.1,41.2,31.0,88,72,56,30.04,29.75,24,5,28,0.00
2013-4-15,66.8,56.9,44.5,58.3,51.7,43.6,100,84,69,29.95,29.76,19,5,22,0.96
2013-4-16,49.9,45.0,41.2,43.9,39.4,35.6,97,81,64,30.26,29.93,9,2,12,0.38
2013-4-17,53.5,47.5,43.1,49.3,42.9,35.7,98,84,74,30.27,29.83,20,5,24,1.28
2013-4-18,69.5,57.8,45.4,65.7,56.7,44.3,99,96,82,29.85,29.48,33,6,35,1.17
2013-4-19,45.3,37.7,33.6,43.5,32.3,29.3,95,81,71,29.91,29.49,24,8,27,0.03
2013-4-20,43.4,36.2,29.0,30.9,24.4,17.9,92,64,41,30.47,29.91,18,4,21,0.03
2013-4-21,53.8,40.7,26.4,33.1,26.7,20.3,79,59,37,30.57,30.38,20,4,20,0.00
2013-4-22,66.8,51.5,33.5,41.1,35.7,30.5,91,59,31,30.38,30.08,16,3,19,0.00
2013-4-23,66.4,50.1,37.5,54.4,43.8,36.4,97,80,59,30.08,29.85,17,3,18,0.50
2013-4-24,49.1,40.1,35.6,36.7,32.7,28.0,100,77,49,30.17,29.87,16,4,18,0.03
2013-4-25,50.7,42.9,34.0,37.5,32.7,29.3,84,68,47,30.37,30.10,18,4,20,0.00
2013-4-26,66.3,49.7,31.0,46.1,38.4,28.1,90,68,43,30.41,30.29,23,3,24,0.00
2013-4-27,70.5,56.1,38.2,50.2,42.9,36.6,96,66,32,30.33,30.00,20,3,22,0.00
2013-4-28,62.6,55.6,47.6,57.2,51.9,46.7,97,88,74,30.01,29.81,8,1,8,0.11
2013-4-29,72.5,59.4,44.4,57.7,51.9,43.4,99,79,53,29.94,29.83,19,4,19,0.00
2013-4-30,84.6,69.3,56.4,63.4,57.8,51.9,86,69,40,29.96,29.84,21,7,21,0.00
2013-5-1,84.6,71.5,55.7,61.5,57.3,53.3,94,64,37,30.12,29.96,20,3,20,0.00
2013-5-2,67.2,54.7,41.3,56.7,47.9,39.2,93,79,57,30.16,30.08,13,2,15,0.00
2013-5-3,70.6,53.9,40.7,58.9,48.4,39.2,100,83,62,30.10,29.94,9,1,10,0.00
2013-5-4,75.0,65.3,56.1,53.3,47.2,41.8,73,53,37,30.00,29.93,23,3,27,0.00
2013-5-5,75.9,63.3,51.7,53.4,47.7,43.3,76,59,37,30.00,29.94,16,2,18,0.00
2013-5-6,77.4,62.5,52.1,54.6,46.3,41.6,75,57,34,30.00,29.93,10,1,10,0.00
2013-5-7,77.9,62.5,48.1,56.4,48.4,42.1,91,62,40,30.02,29.96,8,1,11,0.00
2013-5-8,77.5,66.6,54.1,59.3,50.9,45.2,88,59,38,30.01,29.95,9,1,11,0.00
2013-5-9,80.6,63.7,50.2,59.4,54.3,46.9,97,75,38,29.96,29.80,10,2,12,0.22
2013-5-10,60.7,48.9,40.9,60.1,48.0,40.3,99,97,91,29.95,29.73,16,3,16,0.15
2013-5-11,58.5,45.9,39.0,52.1,42.4,34.9,99,88,67,30.02,29.84,13,2,21,0.01
2013-5-12,52.4,44.3,40.0,34.8,31.8,28.5,81,62,43,30.12,30.01,17,3,21,0.00
2013-5-13,62.9,49.5,33.1,35.3,31.9,23.5,92,55,29,30.20,30.06,15,1,15,0.00
2013-5-14,86.8,69.3,50.6,62.3,48.8,29.3,66,49,32,30.06,29.67,17,3,18,0.00
2013-5-15,78.0,72.7,60.0,61.9,55.1,49.4,82,55,39,29.80,29.63,13,2,15,0.00
2013-5-16,82.3,67.7,53.0,54.5,49.7,45.1,93,57,30,29.95,29.79,8,0,10,0.00
2013-5-17,79.3,66.4,57.1,62.5,54.3,45.1,93,66,45,30.03,29.94,11,1,14,0.00
2013-5-18,81.2,69.2,57.9,64.6,56.8,44.3,93,65,53,30.07,29.94,12,1,14,0.00
2013-5-19,87.5,75.0,60.0,68.8,62.5,54.7,87,67,47,29.96,29.76,14,2,18,0.00
2013-5-20,87.8,78.6,69.3,71.7,66.7,60.7,93,69,42,29.82,29.71,19,3,21,0.00
2013-5-21,81.9,71.7,62.9,69.7,65.4,61.6,98,82,62,29.77,29.66,19,2,19,0.63
2013-5-22,74.3,68.4,62.8,68.2,63.2,56.3,95,84,60,29.72,29.62,16,2,21,0.19
2013-5-23,62.8,47.3,41.3,57.7,45.4,38.8,98,94,84,30.24,29.71,16,2,18,0.10
2013-5-24,54.2,46.9,38.9,43.8,39.3,34.6,96,76,51,30.42,30.24,11,1,14,0.00
2013-5-25,61.1,50.1,38.3,51.4,43.7,36.7,97,80,60,30.41,30.28,7,0,7,0.00
2013-5-26,70.2,58.5,43.9,54.5,46.4,41.8,93,68,41,30.31,30.14,15,2,17,0.00
2013-5-27,59.5,56.3,50.7,57.6,54.2,49.4,98,93,76,30.14,29.87,15,3,20,0.36
2013-5-28,78.3,68.3,58.1,71.7,65.5,57.5,99,92,77,29.91,29.76,40,2,40,0.85
2013-5-29,84.6,72.6,61.1,72.4,66.2,60.5,99,82,60,29.95,29.80,11,0,14,0.07
2013-5-30,85.8,76.5,66.8,72.9,67.5,62.2,89,75,59,29.95,29.83,22,4,23,0.04
2013-5-31,76.3,70.3,64.9,69.1,66.1,63.4,96,87,76,29.91,29.70,18,4,19,0.12
2013-6-1,76.6,69.1,61.8,67.2,64.3,58.8,97,85,70,29.78,29.67,18,3,19,0.00
2013-6-2,62.4,54.9,44.7,60.6,50.8,41.9,96,86,74,30.04,29.70,10,1,12,0.00
2013-6-3,66.7,54.0,41.4,51.7,45.3,40.1,97,74,53,30.12,30.03,9,0,10,0.00
2013-6-4,73.5,60.1,45.5,53.9,48.5,42.4,92,69,41,30.17,30.08,14,1,16,0.00
2013-6-5,78.0,67.1,56.1,58.0,51.6,45.3,86,59,41,30.10,29.90,12,2,13,0.00
2013-6-6,71.0,61.7,54.0,57.4,52.1,44.3,91,72,54,29.91,29.82,11,1,12,0.03
2013-6-7,69.8,60.1,52.5,58.8,52.0,43.9,93,76,55,29.92,29.86,7,1,10,0.00
2013-6-8,75.7,63.0,50.8,57.6,52.0,44.6,90,69,49,30.00,29.89,8,1,10,0.00
2013-6-9,80.8,70.4,58.4,66.3,59.3,50.6,94,70,46,30.00,29.82,18,2,20,0.06
2013-6-10,75.7,67.3,61.6,67.6,64.2,60.5,99,91,73,29.85,29.72,11,2,14,0.90
2013-6-11,84.0,70.5,58.9,69.5,63.9,58.3,99,82,55,29.92,29.81,7,1,9,0.02
2013-6-12,87.9,73.7,64.5,76.5,69.5,63.3,98,88,65,29.89,29.57,17,1,21,0.70
2013-6-13,70.5,63.2,55.7,63.8,58.4,52.6,99,85,68,30.00,29.50,13,1,15,0.09
2013-6-14,75.2,63.4,53.9,64.7,57.2,52.4,96,81,63,30.10,29.98,8,0,8,0.00
2013-6-15,73.0,66.5,57.8,66.3,62.5,55.5,94,88,76,30.06,29.88,12,1,13,0.06
2013-6-16,82.0,73.7,66.8,70.8,66.7,63.9,93,80,60,29.90,29.85,11,1,14,0.00
2013-6-17,86.0,75.1,63.1,69.1,62.2,54.2,98,69,36,29.92,29.82,7,0,8,0.01
2013-6-18,74.6,66.2,60.3,66.5,60.2,52.0,94,82,70,30.03,29.85,11,1,11,0.00
2013-6-19,77.0,66.0,54.9,58.9,51.4,47.4,77,61,41,30.14,30.03,7,0,9,0.00
2013-6-20,85.0,72.1,56.9,67.0,59.9,49.2,86,67,47,30.16,30.08,9,1,11,0.00
2013-6-21,88.1,73.0,64.2,70.7,66.1,61.8,95,81,50,30.14,29.91,19,2,25,0.18
2013-6-22,85.3,75.3,67.5,75.7,69.8,65.0,94,84,67,30.06,29.95,9,1,10,0.00
2013-6-23,86.9,75.9,66.2,75.6,68.6,64.0,96,79,58,30.04,29.93,13,1,14,0.00
2013-6-24,85.0,73.9,65.8,74.4,68.4,64.9,97,84,63,30.05,29.90,26,1,37,0.25
2013-6-25,87.4,74.8,66.5,78.2,70.9,64.2,98,89,68,29.95,29.77,29,1,33,0.39
2013-6-26,82.3,71.5,63.8,74.5,68.7,63.2,99,92,76,29.88,29.70,18,1,20,3.25
2013-6-27,88.2,75.2,66.6,73.9,68.8,64.4,98,82,57,29.76,29.64,10,1,12,0.00
2013-6-28,80.0,72.0,65.6,66.2,64.5,61.6,94,79,56,29.66,29.56,13,2,13,0.00
2013-6-29,72.9,66.1,63.1,66.5,63.7,61.8,97,92,76,29.71,29.54,7,0,7,0.11
2013-6-30,74.8,67.5,62.5,67.4,62.7,59.9,97,85,72,29.93,29.71,9,0,10,0.00
2013-7-1,75.4,67.5,58.3,62.9,54.7,42.4,88,64,48,30.02,29.92,14,1,18,0.00
2013-7-2,65.6,61.5,59.3,60.8,58.5,53.3,98,91,67,30.03,29.98,12,1,12,0.22
2013-7-3,74.5,66.7,60.8,68.4,64.4,60.2,99,93,78,30.07,29.98,9,1,10,0.22
2013-7-4,78.2,68.9,58.0,68.3,63.5,57.4,100,84,66,30.11,30.04,9,1,11,0.00
2013-7-5,83.3,72.1,60.1,70.5,65.7,59.1,99,82,61,30.10,30.00,10,1,10,0.00
2013-7-6,80.2,72.5,66.8,72.4,69.1,65.3,97,89,73,30.06,29.96,9,1,11,0.04
2013-7-7,83.9,75.4,66.8,74.9,70.7,65.8,98,86,70,30.02,29.94,9,1,12,0.00
2013-7-8,82.7,74.6,68.1,76.2,71.5,66.5,99,90,78,30.03,29.92,11,1,11,0.36
2013-7-9,85.9,77.1,71.2,79.6,74.7,70.3,99,93,77,29.97,29.85,17,0,17,0.53
2013-7-10,80.6,74.4,61.8,77.0,69.0,59.1,98,84,63,29.97,29.81,9,0,9,0.00
2013-7-11,77.8,68.3,58.7,64.9,59.8,55.8,98,76,49,30.07,29.97,7,0,8,0.00
2013-7-12,83.4,70.4,58.5,66.8,61.7,55.9,98,76,45,30.13,30.06,6,0,7,0.00
2013-7-13,83.8,73.2,60.0,68.9,64.0,57.5,92,74,55,30.15,30.09,11,1,12,0.00
2013-7-14,88.5,78.5,66.9,74.0,69.7,64.5,94,76,56,30.18,30.13,10,1,14,0.00
2013-7-15,91.0,81.6,72.6,79.3,75.3,70.5,95,82,65,30.24,30.17,8,1,9,0.00
2013-7-16,91.7,82.1,72.2,77.3,74.4,70.9,98,79,59,30.29,30.21,7,0,9,0.00
2013-7-17,91.2,82.5,73.3,77.2,74.2,71.0,94,77,59,30.29,30.14,7,0,7,0.00
2013-7-18,92.4,83.6,74.1,79.3,75.0,71.2,93,77,60,30.16,29.94,7,0,10,0.00
2013-7-19,93.5,84.0,75.0,78.4,74.4,71.4,94,75,50,29.95,29.73,11,1,14,0.00
2013-7-20,86.5,79.2,72.2,72.9,68.7,63.0,88,71,52,29.90,29.74,10,0,10,0.00
2013-7-21,87.6,77.0,67.1,70.0,66.8,62.8,94,72,49,29.95,29.83,17,1,17,0.15
2013-7-22,85.3,74.9,66.3,73.2,68.6,65.1,98,83,60,29.86,29.73,11,1,13,0.39
2013-7-23,78.0,70.1,61.1,69.9,63.1,52.9,93,79,69,29.93,29.68,9,1,12,0.00
2013-7-24,72.2,62.9,52.9,57.7,52.9,48.6,87,71,52,30.04,29.93,8,1,9,0.00
2013-7-25,78.8,67.1,54.4,61.0,56.3,51.6,94,71,48,30.11,30.03,6,0,7,0.00
2013-7-26,76.0,66.5,59.2,64.8,60.8,56.2,96,83,63,30.05,29.86,11,1,13,0.04
2013-7-27,67.6,63.2,57.0,63.9,57.9,48.3,99,84,65,29.89,29.83,15,1,15,0.01
2013-7-28,67.4,59.1,50.6,55.4,51.2,47.9,91,76,57,30.01,29.86,13,1,13,0.00
2013-7-29,73.0,63.8,54.0,60.7,55.7,49.6,92,76,61,30.18,30.01,10,1,11,0.00
2013-7-30,77.0,66.4,54.7,64.0,59.6,53.0,96,80,59,30.19,30.07,9,1,10,0.00
2013-7-31,69.3,66.5,63.6,67.3,64.7,62.1,98,94,87,30.07,29.93,8,0,8,0.03
2013-8-1,78.1,69.2,60.3,66.8,60.2,53.3,99,76,44,29.96,29.92,9,1,10,0.01
2013-8-2,80.9,66.1,57.5,74.1,63.7,54.3,98,92,69,29.95,29.80,11,1,13,0.94
2013-8-3,76.2,68.8,60.3,68.2,61.7,54.5,99,80,52,30.08,29.93,6,0,10,0.01
2013-8-4,75.6,65.8,57.8,63.4,58.0,54.6,97,77,55,30.18,30.08,7,0,8,0.00
2013-8-5,74.4,65.2,55.3,65.7,58.8,52.1,91,80,71,30.12,29.90,9,1,12,0.00
2013-8-6,80.1,70.8,63.0,72.4,67.0,61.3,98,89,74,29.91,29.84,9,1,11,0.16
2013-8-7,85.4,72.7,64.9,77.2,70.1,64.0,99,92,72,29.91,29.78,10,1,12,1.45
2013-8-8,79.0,69.0,62.9,68.6,63.5,60.1,99,84,64,29.98,29.90,11,0,12,0.00
2013-8-9,79.2,71.2,60.5,66.8,63.0,58.1,97,77,53,30.01,29.94,5,0,6,0.00
2013-8-10,80.7,71.6,64.6,69.2,62.4,54.5,97,74,51,30.10,30.01,8,0,9,0.00
2013-8-11,79.4,70.2,59.1,65.3,59.9,54.2,91,71,51,30.11,30.02,7,0,7,0.00
2013-8-12,83.6,72.4,64.8,71.3,66.5,62.1,97,83,59,30.04,29.83,8,0,8,0.03
2013-8-13,68.5,63.3,56.0,66.5,56.1,51.0,98,79,59,30.12,29.88,10,1,12,0.00
2013-8-14,69.3,60.0,50.5,55.2,50.7,45.8,91,73,54,30.21,30.12,7,0,10,0.00
2013-8-15,73.8,62.2,49.1,59.8,54.5,47.7,97,78,56,30.18,30.10,6,0,6,0.00
2013-8-16,78.9,66.9,55.4,59.8,56.4,53.1,97,72,42,30.18,30.12,8,0,11,0.00
2013-8-17,79.5,67.8,56.0,63.1,58.1,53.9,95,74,46,30.23,30.15,13,1,16,0.00
2013-8-18,81.4,69.3,57.5,64.8,59.7,55.6,95,74,49,30.19,30.09,8,0,8,0.00
2013-8-19,82.3,71.1,59.0,67.0,62.1,57.0,96,75,48,30.11,30.02,6,0,8,0.00
2013-8-20,85.4,72.4,61.8,71.1,65.7,60.5,98,81,57,30.12,30.04,8,0,9,0.00
2013-8-21,88.6,76.3,64.5,74.0,68.0,63.0,97,77,53,30.09,29.96,10,0,13,0.00
2013-8-22,74.6,70.5,66.6,70.0,67.7,65.4,98,91,80,30.10,29.95,17,1,18,1.54
2013-8-23,83.2,71.4,62.4,67.2,62.7,56.1,99,77,44,30.16,30.06,8,0,10,0.00
2013-8-24,83.5,69.8,57.5,64.8,58.4,55.1,93,70,44,30.26,30.15,13,1,13,0.00
2013-8-25,86.0,73.0,58.9,69.9,63.6,56.1,93,74,54,30.26,30.14,10,0,10,0.00
2013-8-26,88.3,75.7,63.6,75.8,68.7,60.4,92,80,62,30.16,29.99,7,0,9,0.00
2013-8-27,91.3,80.9,71.8,79.7,73.0,69.1,94,78,57,29.99,29.81,7,0,10,0.00
2013-8-28,80.1,75.0,69.7,73.2,70.4,67.1,98,86,66,29.99,29.81,13,0,13,0.00
2013-8-29,87.7,75.5,66.2,73.8,69.0,65.0,99,82,52,30.05,29.96,8,0,8,0.00
2013-8-30,90.9,77.6,66.4,77.7,71.3,65.5,98,83,60,29.96,29.73,9,1,13,0.15
2013-8-31,77.3,71.8,68.9,73.4,69.7,67.2,98,93,81,29.83,29.74,8,0,8,0.46
2013-9-1,81.8,74.1,67.8,73.7,70.5,67.1,99,89,72,29.78,29.69,6,0,8,0.01
2013-9-2,76.3,69.6,62.5,70.0,64.2,56.5,97,84,68,29.95,29.73,7,0,8,0.00
2013-9-3,74.3,64.5,57.6,60.3,57.2,54.1,94,78,55,30.06,29.95,5,0,7,0.00
2013-9-4,80.8,67.5,54.7,63.7,58.6,50.3,98,76,36,30.12,30.03,10,1,10,0.00
2013-9-5,78.3,66.9,58.1,60.8,57.5,51.8,94,74,48,30.22,30.09,10,0,12,0.00
2013-9-6,81.6,67.7,52.9,66.2,57.3,47.8,85,71,48,30.23,30.02,9,1,9,0.00
2013-9-7,86.1,71.5,60.7,70.3,64.9,58.3,96,82,49,30.03,29.87,9,0,10,0.04
2013-9-8,78.2,70.8,66.3,70.1,66.9,64.0,97,88,75,30.00,29.91,12,1,14,0.00
2013-9-9,91.7,77.5,63.8,76.6,69.9,60.8,93,79,59,29.98,29.81,12,1,14,0.00
2013-9-10,94.4,81.9,70.3,72.5,68.7,64.3,95,68,38,29.99,29.88,11,1,15,0.00
2013-9-11,93.2,78.1,71.6,74.3,70.0,66.7,93,78,44,30.02,29.92,9,0,11,0.00
2013-9-12,82.4,70.8,61.5,69.1,62.1,53.5,94,76,45,30.02,29.86,10,0,14,0.06
2013-9-13,64.0,57.7,50.2,53.8,48.3,45.1,87,72,58,30.13,30.02,10,0,12,0.00
2013-9-14,70.0,56.5,43.3,48.2,43.9,41.3,97,67,37,30.20,30.05,9,0,9,0.00
2013-9-15,63.7,56.3,49.2,58.6,51.3,42.4,97,84,70,30.14,29.99,6,0,10,0.14
2013-9-16,66.0,57.2,50.3,54.7,52.6,46.8,100,86,64,30.33,30.14,7,0,8,0.00
2013-9-17,69.7,57.9,45.6,54.4,49.7,44.0,96,76,54,30.36,30.13,9,1,13,0.00
2013-9-18,80.0,70.5,56.6,67.1,61.4,48.9,97,74,57,30.13,29.94,12,1,13,0.44
2013-9-19,72.2,67.9,64.5,70.3,66.9,63.9,99,97,91,29.99,29.83,16,2,20,1.31
2013-9-20,74.3,69.3,60.9,70.8,65.6,54.8,97,88,77,29.84,29.74,9,1,12,0.01
2013-9-21,65.3,60.0,51.7,56.5,52.6,47.8,89,77,62,29.91,29.74,9,1,14,0.00
2013-9-22,65.0,56.0,47.5,51.3,48.4,44.1,90,76,55,30.06,29.91,7,0,9,0.00
2013-9-23,68.6,55.4,42.9,52.0,47.0,41.1,95,75,52,30.13,30.05,13,1,13,0.00
2013-9-24,70.3,57.5,45.6,53.3,48.3,43.6,94,74,48,30.09,29.94,11,1,12,0.00
2013-9-25,73.4,60.0,49.6,57.8,52.2,47.1,95,78,49,29.97,29.91,7,0,8,0.00
2013-9-26,76.9,61.9,49.1,60.1,52.1,46.7,98,75,35,30.09,29.96,9,0,12,0.00
2013-9-27,79.3,64.1,48.4,54.3,49.5,44.3,87,63,31,30.18,30.08,10,1,13,0.00
2013-9-28,82.2,67.4,51.8,61.2,56.2,49.8,95,70,45,30.12,29.93,15,2,16,0.00
2013-9-29,70.1,61.0,49.9,62.0,55.3,48.4,97,83,67,30.01,29.91,9,0,12,0.10
2013-9-30,73.0,59.2,46.6,56.5,51.3,45.7,99,78,43,30.01,29.90,10,0,11,0.00
2013-10-1,78.0,65.9,56.7,66.2,61.5,54.7,98,87,65,30.00,29.90,11,1,17,0.00
2013-10-2,81.8,70.0,62.9,65.7,60.6,56.1,98,75,47,30.07,29.96,7,0,7,0.00
2013-10-3,75.0,67.5,62.5,70.0,65.7,58.9,99,94,83,29.98,29.86,11,1,14,0.36
2013-10-4,81.1,70.5,62.4,72.8,67.4,61.5,98,91,71,29.99,29.91,7,0,9,0.00
2013-10-5,79.6,69.4,65.3,73.0,67.5,64.5,99,94,74,29.96,29.77,14,1,19,0.45
2013-10-6,66.1,56.8,44.7,65.7,52.4,41.6,100,86,60,29.78,29.67,12,1,14,0.24
2013-10-7,61.6,50.7,44.0,49.6,45.1,41.3,93,82,54,30.12,29.76,13,1,16,0.00
2013-10-8,73.4,57.7,44.0,56.0,48.6,42.3,97,75,44,30.22,30.12,8,1,11,0.00
2013-10-9,71.7,57.5,44.6,52.2,47.0,42.3,93,71,39,30.27,30.15,11,0,12,0.00
2013-10-10,74.2,58.8,45.3,56.1,49.9,43.3,96,75,47,30.19,30.06,11,0,11,0.00
2013-10-11,75.2,60.6,47.0,54.3,49.3,44.6,93,69,43,30.11,29.99,9,0,11,0.00
2013-10-12,77.8,63.3,51.1,63.6,55.4,48.3,93,77,55,30.14,29.97,18,2,18,0.02
2013-10-13,62.7,54.3,43.4,50.4,45.0,41.4,93,72,54,30.39,30.14,11,1,11,0.00
2013-10-14,65.0,52.4,42.0,49.0,44.6,40.1,95,77,51,30.41,30.17,11,1,12,0.00
2013-10-15,63.8,56.2,47.3,61.6,53.7,44.5,98,92,83,30.17,29.81,13,2,15,0.16
2013-10-16,56.4,50.1,43.9,51.8,46.1,42.2,95,86,80,29.94,29.85,12,0,12,0.00
2013-10-17,51.1,47.8,39.6,47.8,45.0,38.3,97,90,80,29.93,29.82,11,1,14,0.12
2013-10-18,57.4,44.7,37.3,47.8,40.7,36.5,99,87,68,29.98,29.87,12,1,14,0.00
2013-10-19,53.9,46.7,42.2,42.1,38.6,33.3,94,75,48,29.95,29.80,12,1,15,0.01
2013-10-20,62.9,51.1,37.1,47.5,42.3,35.2,96,74,55,29.92,29.77,14,2,17,0.00
2013-10-21,54.7,47.5,37.6,47.8,39.5,27.8,94,74,57,29.96,29.82,10,2,12,0.03
2013-10-22,46.2,36.7,30.5,36.5,30.6,25.8,94,80,45,30.00,29.91,8,0,11,0.01
2013-10-23,43.3,38.5,34.1,38.7,33.2,27.7,98,83,56,30.02,29.87,12,1,14,0.18
2013-10-24,43.7,38.3,34.4,35.6,30.8,27.4,95,75,57,30.28,30.01,14,2,17,0.05
2013-10-25,48.8,39.8,31.0,33.7,29.8,26.6,89,69,45,30.42,30.12,11,1,14,0.01
2013-10-26,53.4,45.6,38.9,39.8,34.0,29.4,72,64,57,30.12,29.86,15,2,19,0.00
2013-10-27,55.3,42.7,31.2,35.5,32.2,29.1,93,69,42,30.09,29.99,9,0,11,0.00
2013-10-28,59.5,43.8,30.7,44.6,36.7,28.6,94,78,44,30.36,30.08,8,0,9,0.00
2013-10-29,56.4,44.6,35.0,42.8,38.5,32.9,94,80,58,30.39,30.17,12,1,13,0.00
2013-10-30,62.6,52.6,41.6,62.1,49.9,38.8,99,91,80,30.18,29.80,15,1,20,1.55
2013-10-31,62.8,59.1,49.1,62.4,58.5,47.9,99,98,94,29.80,29.19,18,4,21,1.25
2013-11-1,49.6,46.4,44.7,47.9,43.0,40.1,99,88,73,29.73,29.33,22,2,22,0.11
2013-11-2,46.2,43.7,38.9,44.8,41.9,36.6,98,94,83,30.13,29.72,11,1,11,0.38
2013-11-3,50.9,43.0,37.9,44.1,39.2,36.1,98,87,66,30.34,30.13,0,0,0,0.04
2013-11-4,53.7,46.9,39.5,44.6,40.4,36.5,90,79,65,30.35,30.19,0,0,0,0.00
2013-11-5,55.4,51.9,48.8,50.5,47.0,44.5,96,84,77,30.31,30.03,0,0,0,0.00
2013-11-6,57.1,49.8,40.2,53.6,46.8,30.0,98,90,66,30.12,29.81,0,0,0,0.87
2013-11-7,46.7,39.2,32.6,34.7,31.4,28.8,92,74,53,30.25,30.12,0,0,0,0.00
2013-11-8,49.2,39.6,29.6,35.8,32.7,27.9,96,78,54,30.35,30.06,0,0,0,0.00
2013-11-9,59.9,50.0,42.7,43.5,38.6,29.8,77,65,50,30.07,29.89,0,0,0,0.00
2013-11-10,46.7,40.5,32.8,34.6,31.5,26.9,88,71,56,30.32,30.06,0,0,1,0.00
2013-11-11,46.5,37.9,28.3,39.7,33.3,26.0,96,84,67,30.45,30.11,0,0,1,0.23
2013-11-12,32.0,26.6,20.7,29.5,23.2,16.8,96,87,68,30.67,30.45,0,0,0,0.10
2013-11-13,36.2,25.9,13.5,25.6,20.3,11.2,93,80,64,30.62,30.25,1,0,1,0.17
2013-11-14,47.7,37.1,27.4,33.2,27.2,21.5,79,68,55,30.25,30.01,0,0,1,0.19
2013-11-15,47.6,41.6,35.9,38.0,33.3,29.1,84,72,62,30.05,29.99,0,0,0,0.01
2013-11-16,58.3,48.9,38.2,99.9,47.6,33.8,97,91,84,30.00,29.65,0,-14,1,0.10
2013-11-17,64.3,56.4,43.2,62.3,53.0,37.1,98,89,73,29.71,29.21,0,0,0,0.35
2013-11-18,43.1,39.3,35.0,37.7,31.9,27.5,88,75,65,30.24,29.69,0,0,0,0.00
2013-11-19,47.3,37.3,30.0,33.3,29.1,26.5,87,73,54,30.38,30.24,0,0,0,0.00
2013-11-20,46.2,37.1,28.6,38.0,30.6,25.3,94,78,57,30.36,30.15,0,0,0,0.09
2013-11-21,49.0,44.8,39.6,45.4,42.7,37.9,98,93,84,30.22,30.16,0,0,0,0.42
2013-11-22,45.8,37.4,27.3,45.2,34.9,25.3,98,91,81,30.46,30.17,0,0,0,0.04
2013-11-23,29.4,24.7,20.0,25.6,19.1,12.8,92,79,65,30.66,30.40,16,1,19,0.00
2013-11-24,27.7,21.3,18.2,17.7,11.5,1.5,91,67,32,30.72,30.45,16,3,16,0.02
2013-11-25,31.2,26.3,18.5,27.0,20.1,10.9,93,78,62,30.45,30.13,18,4,18,0.00
2013-11-26,34.2,29.3,24.4,30.6,25.6,19.3,93,86,61,30.14,30.00,5,1,8,0.03
2013-11-27,27.3,25.6,22.8,24.0,20.5,15.7,91,81,71,30.28,30.06,18,6,19,0.00
2013-11-28,34.7,27.3,21.7,22.8,18.9,14.2,80,71,56,30.50,30.23,12,2,15,0.05
2013-11-29,37.3,30.1,26.4,25.3,22.4,19.8,82,73,59,30.66,30.47,5,0,6,0.04
2013-11-30,49.4,36.7,26.6,35.5,29.2,23.3,92,75,57,30.47,30.09,9,1,10,0.00
2013-12-1,46.1,35.6,28.7,39.8,31.8,26.1,95,86,75,30.11,29.99,0,0,0,0.00
2013-12-2,42.2,34.9,27.8,33.4,30.8,26.5,96,85,66,30.00,29.81,0,0,0,0.16
2013-12-3,48.9,42.2,34.3,47.4,41.3,33.1,98,97,94,29.81,29.73,0,0,0,0.00
2013-12-4,57.6,51.2,46.0,56.2,50.2,45.1,99,97,88,29.79,29.56,0,0,0,0.01
2013-12-5,52.3,31.4,25.2,47.9,25.5,18.4,92,79,67,30.25,29.66,0,0,0,0.00
2013-12-6,26.1,24.0,20.9,20.5,18.2,13.7,82,78,73,30.51,30.22,0,0,0,0.00
2013-12-7,20.9,17.8,12.1,15.1,12.3,9.8,92,79,73,30.69,30.51,13,3,14,0.00
2013-12-8,26.1,21.5,12.6,24.4,18.1,10.4,95,87,74,30.62,29.97,15,3,17,0.00
2013-12-9,26.3,20.4,8.4,25.0,15.5,1.1,95,81,67,30.26,29.96,16,6,19,0.00
2013-12-10,24.2,13.0,0.2,14.7,6.4,-3.4,86,74,64,30.35,30.09,20,5,21,0.00
2013-12-11,22.2,16.3,5.3,19.2,11.3,-0.2,91,81,64,30.60,30.32,16,4,18,0.00
2013-12-12,21.5,9.3,-4.7,99.9,28.4,-4.3,92,77,62,30.60,30.29,14,3,14,0.02
2013-12-13,31.0,21.7,11.2,25.5,16.8,8.4,94,81,63,30.29,30.17,9,1,12,0.05
2013-12-14,27.1,25.1,22.5,26.4,23.1,19.6,99,92,88,30.17,29.88,14,3,16,0.00
2013-12-15,27.4,16.2,8.1,25.5,12.3,4.5,95,84,73,30.15,29.94,15,5,16,0.00
2013-12-16,22.0,15.9,6.5,18.6,12.8,4.3,94,87,75,30.21,30.06,12,2,13,0.00
2013-12-17,30.7,23.0,16.7,26.3,20.1,15.1,95,89,76,30.10,29.99,12,3,13,0.00
2013-12-18,35.8,23.6,13.3,29.9,17.9,10.4,89,79,69,30.23,29.90,16,4,19,0.12
2013-12-19,41.3,37.1,32.8,37.4,34.3,29.9,97,90,81,29.99,29.81,0,0,0,0.51
2013-12-20,40.9,37.8,34.9,40.6,37.3,34.6,99,98,97,29.82,29.71,0,0,0,0.30
2013-12-21,35.9,34.1,32.6,35.6,33.8,32.2,100,99,98,29.85,29.49,0,0,0,0.45
2013-12-22,34.2,31.9,27.7,33.9,31.2,25.6,99,97,92,30.11,29.55,0,0,0,0.24
2013-12-23,27.6,19.0,2.2,25.6,15.2,-1.5,93,85,69,30.47,30.10,14,5,16,0.00
2013-12-24,18.9,9.6,1.1,14.2,5.8,-2.4,90,83,76,30.61,30.46,14,3,14,0.00
2013-12-25,27.0,23.3,17.7,26.0,20.5,13.7,96,89,81,30.47,30.12,18,5,19,0.00
2013-12-26,33.3,25.6,16.5,29.0,21.7,12.9,94,85,75,30.34,30.12,16,4,17,0.00
2013-12-27,41.4,34.4,24.5,34.3,30.5,23.0,97,86,75,30.34,30.13,5,0,6,0.06
2013-12-28,49.6,39.5,32.2,39.8,34.0,29.7,92,81,67,30.14,29.88,0,0,0,0.00
2013-12-29,37.3,30.2,18.3,33.4,27.3,14.6,98,89,82,30.15,29.78,8,0,9,0.01
2013-12-30,19.3,15.0,12.0,14.5,10.9,8.7,89,83,74,30.33,30.15,11,3,13,0.00
2013-12-31,16.7,12.6,8.1,15.0,9.3,5.1,93,86,73,30.41,30.21,11,3,13,0.00
2014-1-1,19.7,16.8,13.2,16.1,14.2,10.5,93,89,84,30.34,30.18,15,3,15,0.00
2014-1-2,17.1,13.8,10.5,12.0,8.8,2.1,90,80,65,30.42,30.11,11,3,13,0.00